WetterOnline ( https://www.wetteronline.de )

Wetter aktuell Alfeld

Aktuelles Wetter: Alfeld (148m)

6-stündlich | Neueste Meldungen
Ortszeit Temperatur Wetter
Mi, 27.05. 2:00 9.2° C leicht bewölkt
Di, 26.05. 20:00 18.0° C wolkig
Di, 26.05. 14:00 16.4° C bewölkt
Di, 26.05. 8:00 9.9° C leicht bewölkt
Di, 26.05. 2:00 6.0° C wolkenlos
Mo, 25.05. 20:00 13.9° C leicht bewölkt
Mo, 25.05. 14:00 14.0° C bewölkt
Mo, 25.05. 8:00 12.4° C leicht bewölkt
Ortszeit Temperatur Wetter
Mi, 27.05. 2:00 9.2° C leicht bewölkt
Mi, 27.05. 1:50 9.2° C leicht bewölkt
Mi, 27.05. 1:40 9.1° C wolkig
Mi, 27.05. 1:30 9.5° C bewölkt
Mi, 27.05. 1:20 9.5° C bewölkt
Mi, 27.05. 1:10 10.2° C bewölkt
Mi, 27.05. 1:00 10.0° C bewölkt
Mi, 27.05. 0:30 10.5° C bedeckt
Mi, 27.05. 0:00 11.1° C bedeckt
Di, 26.05. 23:30 11.7° C bedeckt
Di, 26.05. 23:00 12.3° C bedeckt
Ortszeit Relative Feuchte Sichtweite
Mi, 27.05. 2:00 90% 40 km
Di, 26.05. 20:00 54% 50 km
Di, 26.05. 14:00 57% 50 km
Di, 26.05. 8:00 80% 25 km
Di, 26.05. 2:00 97% 18 km
Mo, 25.05. 20:00 63% 45 km
Mo, 25.05. 14:00 61% 55 km
Mo, 25.05. 8:00 81% 45 km
Ortszeit Relative Feuchte Sichtweite
Mi, 27.05. 2:00 90% 40 km
Mi, 27.05. 1:50 90% -
Mi, 27.05. 1:40 91% -
Mi, 27.05. 1:30 88% 35 km
Mi, 27.05. 1:20 88% -
Mi, 27.05. 1:10 87% -
Mi, 27.05. 1:00 89% 40 km
Mi, 27.05. 0:30 87% 50 km
Mi, 27.05. 0:00 82% 50 km
Di, 26.05. 23:30 81% 45 km
Di, 26.05. 23:00 77% 55 km
Ortszeit Niederschlagsmenge Niederschlagsart
Mi, 27.05. 2:00 0.0 l/m2 in 6 Std. -
Di, 26.05. 20:00 0.0 l/m2 in 12 Std. -
Di, 26.05. 14:00 0.0 l/m2 in 6 Std. -
Di, 26.05. 8:00 0.0 l/m2 in 12 Std. -
Di, 26.05. 2:00 0.0 l/m2 in 6 Std. -
Mo, 25.05. 20:00 0.0 l/m2 in 12 Std. -
Mo, 25.05. 14:00 0.0 l/m2 in 6 Std. -
Mo, 25.05. 8:00 0.3 l/m2 in 12 Std. Regen
Ortszeit Niederschlagsmenge Niederschlagsart
Mi, 27.05. 2:00 0.0 l/m2 in 1 Std. -
Mi, 27.05. 1:50 keine Meldung -
Mi, 27.05. 1:40 keine Meldung -
Mi, 27.05. 1:30 0.0 l/m2 in 1 Std. -
Mi, 27.05. 1:20 keine Meldung -
Mi, 27.05. 1:10 keine Meldung -
Mi, 27.05. 1:00 0.0 l/m2 in 1 Std. -
Mi, 27.05. 0:30 0.0 l/m2 in 1 Std. -
Mi, 27.05. 0:00 0.0 l/m2 in 1 Std. -
Di, 26.05. 23:30 0.0 l/m2 in 1 Std. -
Di, 26.05. 23:00 0.0 l/m2 in 1 Std. -
Ortszeit Stärke Spitze Richtung
km/h Bft. km/h Grad Sektor
Mi, 27.05. 2:00 2 1 9 160° S
Di, 26.05. 20:00 7 2 14 280° W
Di, 26.05. 14:00 9 2 22 330° NW
Di, 26.05. 8:00 6 1 9 20° N
Di, 26.05. 2:00 0 0 25 - -
Mo, 25.05. 20:00 11 2 40 340° N
Mo, 25.05. 14:00 25 4 47 320° NW
Mo, 25.05. 8:00 18 3 40 280° W
Ortszeit Stärke Spitze Richtung
km/h Bft. km/h Grad Sektor
Mi, 27.05. 2:00 2 1 4 160° S
Mi, 27.05. 1:50 2 1 - 160° S
Mi, 27.05. 1:40 0 0 - 340° N
Mi, 27.05. 1:30 4 1 4 140° SO
Mi, 27.05. 1:20 4 1 - 140° SO
Mi, 27.05. 1:10 0 0 - 90° O
Mi, 27.05. 1:00 0 0 4 - -
Mi, 27.05. 0:30 2 1 2 230° SW
Mi, 27.05. 0:00 0 0 4 - -
Di, 26.05. 23:30 2 1 4 360° N
Di, 26.05. 23:00 0 0 4 - -
Ortszeit Untergrenze Bedeckung Gattung
total tief tief mittel hoch
Mi, 27.05. 2:00 5700 m 3/8 3/8 - - -
Di, 26.05. 20:00 6300 m 6/8 6/8 - - -
Di, 26.05. 14:00 1380 m 7/8 7/8 - - -
Di, 26.05. 8:00 1500 m 4/8 4/8 - - -
Di, 26.05. 2:00 - 0/8 0/8 - - -
Mo, 25.05. 20:00 1320 m 3/8 3/8 - - -
Mo, 25.05. 14:00 1200 m 7/8 7/8 - - -
Mo, 25.05. 8:00 510 m 4/8 4/8 - - -
Ortszeit Bedeckungsgrad in Achtel und Wolkenuntergrenze
Mi, 27.05. 2:00 3(5700m)
Mi, 27.05. 1:50 3(5700m)
Mi, 27.05. 1:40 6(5700m)
Mi, 27.05. 1:30 6(5700m) 7(7200m) 7(7800m)
Mi, 27.05. 1:20 6(5700m) 7(7200m) 7(7800m)
Mi, 27.05. 1:10 6(6000m) 7(7800m) 7(8400m)
Mi, 27.05. 1:00 5(4800m) 7(5700m) 7(8700m)
Mi, 27.05. 0:30 8(4800m) 8(9000m) 8(9000m)
Mi, 27.05. 0:00 8(4800m) 8(8400m) 8(9000m)
Di, 26.05. 23:30 8(4800m) 8(7500m) 8(8400m)
Di, 26.05. 23:00 8(4800m) 8(6300m) 8(7200m)
Ortszeit Luftdruck NN (hPa) Tendenz (hPa in 3 Std.)
Mi, 27.05. 2:00 1035 - 0,2
Di, 26.05. 20:00 1034 - 0,7
Di, 26.05. 14:00 1036 - 0,4
Di, 26.05. 8:00 1036 + 0,6
Di, 26.05. 2:00 1035 + 0,2
Mo, 25.05. 20:00 1033 + 1,3
Mo, 25.05. 14:00 1031 + 1,0
Mo, 25.05. 8:00 1029 + 0,7
Ortszeit Luftdruck NN (hPa) Tendenz (hPa in 3 Std.)
Mi, 27.05. 2:00 1035 - 0,2
Mi, 27.05. 1:50 1035 keine Meldung
Mi, 27.05. 1:40 1035 keine Meldung
Mi, 27.05. 1:30 1035 0,0
Mi, 27.05. 1:20 1035 keine Meldung
Mi, 27.05. 1:10 1035 keine Meldung
Mi, 27.05. 1:00 1035 0,0
Mi, 27.05. 0:30 1035 + 0,4
Mi, 27.05. 0:00 1036 + 0,6
Di, 26.05. 23:30 1036 + 0,8
Di, 26.05. 23:00 1035 + 0,7
Ortszeit Schneehöhe (cm)
Mi, 27.05. 2:00 -
Di, 26.05. 20:00 -
Di, 26.05. 14:00 -
Di, 26.05. 8:00 -
Di, 26.05. 2:00 -
Mo, 25.05. 20:00 -
Mo, 25.05. 14:00 -
Mo, 25.05. 8:00 -
Ortszeit Schneehöhe (cm)
Mi, 27.05. 2:00 -
Mi, 27.05. 1:50 -
Mi, 27.05. 1:40 -
Mi, 27.05. 1:30 -
Mi, 27.05. 1:20 -
Mi, 27.05. 1:10 -
Mi, 27.05. 1:00 -
Mi, 27.05. 0:30 -
Mi, 27.05. 0:00 -
Di, 26.05. 23:30 -
Di, 26.05. 23:00 -
Link zu dieser Seite / Seite empfehlen

Das Wetter in ...